Regional Weather Roundup
Issued by NWS Northern Indiana

Home | Current Version | Previous Version | Text Only | Print | Product List | Glossary Off
Versions: 1 2 3 4 5 6 7 8 9 10 11 12 13 14 15 16 17 18 19 20 21 22 23 24 25 26 27 28 29 30 31 32 33 34 35 36 37 38 39 40 41 42 43 44 45 46 47 48 49 50

000
ASUS43 KIWX 241100
RWRIWX

KIWX WEATHER ROUNDUP
NATIONAL WEATHER SERVICE NORTHERN INDIANA
700 AM EDT SUN JUL 24 2016

NOTE: "FAIR" INDICATES FEW OR NO CLOUDS BELOW 12,000 FEET WITH NO
SIGNIFICANT WEATHER AND/OR OBSTRUCTIONS TO VISIBILITY.

* THESE STATIONS ARE NOT UNDER NWS QUALITY CONTROL. THEY ALSO MAY NOT
  REPORT WEATHER SUCH AS PRECIPITATION OR FOG.

INZ001>027-241200-
NORTHERN INDIANA

CITY           SKY/WX    TMP DP  RH WIND       PRES   REMARKS
GARY*          MOCLDY    72 N/A N/A S7        29.93R
KNOX*          CLOUDY    70  68  94 S6        29.95S
SOUTH BEND     CLOUDY    70  70 100 SW6       29.95S
GOSHEN         CLOUDY    72  68  87 SW9       29.95F
MONTICELLO*    PTCLDY    71  66  83 SE3       29.96S
ANGOLA*        MOCLDY    72  64  78 CALM      29.97S
FORT WAYNE     CLOUDY    72  69  90 SW7       29.97R
PERU/GRISSOM   CLOUDY    71  71 100 S7        29.96F

$$
INZ028>050-241200-
CENTRAL INDIANA

CITY           SKY/WX    TMP DP  RH WIND       PRES   REMARKS
LAFAYETTE      CLOUDY    70  69  97 E3        29.97R
KOKOMO*        CLOUDY    70  66  88 S6        29.99S
MUNCIE*        CLEAR     74  69  85 S3        30.00S
INDIANAPOLIS   CLOUDY    78  71  79 E9        29.99S

$$
MIZ043>046-050>051-056>058-064>065-071>073-077>080-241200-
SOUTHWEST LOWER MICHIGAN

CITY           SKY/WX    TMP DP  RH WIND       PRES   REMARKS
BATTLE CREEK   CLOUDY    70  70 100 S5        29.94F
BENTON HARBOR  CLOUDY    72  69  90 S6        29.92S
COLDWATER*     CLOUDY    72  72 100 CALM      29.96R FOG
HOLLAND        CLOUDY    72  70  93 SE8       29.91S
GRAND RAPIDS   TSTM      72  70  93 S6        29.93F FOG
KALAMAZOO      LGT RAIN  73  70  90 S5        29.92F
STURGIS*       RAIN      70  70  99 SE6       29.92F
THREE RIVERS*  CLOUDY    72  71  96 S3        29.93F

$$
OHZ001>008-015>018-024>025-241200-
NORTHWEST OHIO

CITY           SKY/WX    TMP DP  RH WIND       PRES   REMARKS
DEFIANCE       CLOUDY    76  69  79 SE3       29.95F
FINDLAY        CLOUDY    75  70  84 SW3       29.97S
TOLEDO EXPRESS CLOUDY    74  72  93 SE3       29.94F
TOLEDO METCALF CLOUDY    75  70  84 S5        29.96F
LIMA           CLOUDY    74  73  97 S6        29.99F

$$
AND FOR LAKE MICHIGAN COASTAL AND OPEN LAKE BUOY OBSERVATIONS

STATION/POSITION TEMP    WIND        PRES    VSBY  WAVE
                 AIR SEA DIR/SP/G                  HT/PER
                 (F)     (DEG/KT/KT) (MB)    (MI)  (FT/S)
CALUMET HARBOR    72     180/  5/  7 1012.6R
MICHIGAN CITY     73     130/  9/ 10   N/A
BURNS HARBOR      72     190/  7/ 10 1013.9R
SAINT JOSEPH      71     180/  2/  6 1013.2F
SOUTH LAKE BUOY   72 72  150/ 16/ 19 1010.9          2/ 3
4 MI NW BRIDGMAN  72 73  170/  8/ 10 1013.2R         2/ 2
MICHIGAN CITY     74 73  180/  8/ 10   N/A           1/ 4

$$
&&




USA.gov is the U.S. government's official web portal to all federal, state and local government web resources and services.